Weather in Tukhard

Russia / Krasnoyarsk Krai     69°18′10″N   84°20′07″E
temp.,
°C
wind,
m/s
gust,
m/s
humid.,
%
clouds,
%
prec.,
mm/h
press.,
hPa
HPBL,
m
15 may, sat
sat1501:00−7nnw379780 0.3 1010110
04:00−11nnw469872 0.0 101169
07:00−8nnw612915 0.1 1013292
10:00−7nnw611915 0.0 1014452
13:00−6nw688889 0.0 1016572
16:00−6nw588854 0.0 1017511
19:00−6wnw599134 0.0 1018416
22:00−9w48955 0.0 1018115
16 may, sun
sun1601:00−13w359752 0.0 101858
04:00−14w359760 0.0 101953
07:00−11w369632 0.0 1019114
10:00−8w479358 0.0 1019228
13:00−6w568858 0.0 1019346
16:00−5w588854 0.0 1020435
19:00−5wsw599176 0.0 1020350
22:00−7wsw499388 0.0 1019193
17 may, mon
mon1701:00−8wsw4895100 0.1 1019159
04:00−8wsw4896100 0.3 1019154
07:00−7w4796100 0.5 1019215
10:00−5wnw349398 0.2 1019301
13:00−4wnw3385100 0.3 1020607
16:00−3wnw3376100 0.1 1020843
19:00−5nw239065 0.1 102152
22:00−11n11975 0.0 102010
18 may, tue
tue1801:00−14ne1110088 0.0 10219
04:00−15n1110094 0.0 10219
07:00−12n229986 0.0 102235
10:00−7n239482 0.0 1022158
13:00−5n348994 0.0 1022396
16:00−4n348565 0.0 1023504
19:00−4nnw35935 0.0 1024167
22:00−7nnw359587 0.0 102458
19 may, wed
wed1901:00−10nnw359760 0.0 102457
04:00−11nnw369996 0.0 102568
07:00−9nnw379887 0.1 1026143
10:00−6n479589 0.0 1026263
13:00−4n578722 0.0 1026414
16:00−4n59875 0.0 1027472
19:00−4n48915 0.0 1028300
22:00−9n33955 0.0 102842